Regional Weather Roundup
Issued by NWS

Home | Current Version | Previous Version | Graphics & Text | Print | Product List | Glossary On
Versions: 1 2 3 4 5 6 7 8 9 10 11 12 13 14 15 16 17 18 19 20 21 22 23 24 25 26 27 28 29 30 31 32 33 34 35 36 37 38 39 40 41 42 43 44 45 46 47 48 49 50
000
ASUS45 KSLC 240610
RWRUT

UTAH REGIONAL WEATHER ROUNDUP
NATIONAL WEATHER SERVICE SALT LAKE CITY UT
1100 PM MST MON JAN 23 2017

UTZ001>011-023>025-240700-

NORTHERN UTAH

CITY           SKY/WX    TMP DP  RH WIND       PRES   REMARKS
BRIGHAM CITY     N/A     29  27  91 SE3       29.63R
HILL AFB       FLURRIES  27  25  91 CALM      29.62R
LOGAN          LGT SNOW  27  27 100 SE5       29.61R FOG     WCI  22
OGDEN          LGT SNOW  28  27  96 S3        29.62R FOG
SALT LAKE CITY FLURRIES  32  27  81 N6        29.62S WCI  26
TOOELE VALLEY  CLOUDY    30  27  86 CALM      29.63R
WENDOVER       MOCLDY    28  16  59 W9        29.63S WCI  20
HEBER CITY     CLOUDY    25  19  80 CALM      29.57R
WEST JORDAN    CLOUDY    30  30 100 CALM      29.63R

$$

UTZ011>015-024>027-240700-

CENTRAL/NORTHEAST UTAH

CITY           SKY/WX    TMP DP  RH WIND       PRES   REMARKS
PROVO AIRPORT  CLOUDY    29  28  96 SW6       29.64R WCI  23
MOAB/CANYONLAN MOCLDY    34  28  79 SE7       29.56S WCI  28
DELTA          CLOUDY    30  28  93 E3        29.64S
PRICE          CLOUDY    26  20  77 NE6       29.55R WCI  19
ROOSEVELT      FOG       19  18  93 CALM      29.57S VSB 1/4
VERNAL         CLOUDY    19  17  92 CALM      29.54

$$

UTZ013>016-019>022-027-240700-

SOUTHERN UTAH

CITY           SKY/WX    TMP DP  RH WIND       PRES   REMARKS
BRYCE CANYON   CLOUDY    12   8  84 CALM      29.58S
CEDAR CITY     CLOUDY    23  21  92 S7        29.61S WCI  15
MILFORD        PTCLDY    25  21  85 W8        29.63R WCI  16
ST GEORGE      CLOUDY    34  28  80 S12       29.73S WCI  25
HANKSVILLE     MOCLDY    32  27  80 MISG      29.61R
BLANDING       CLOUDY    29  29 100 S9        29.70S VSB 1/2 WCI  21

$$

REGIONAL REPORTS     COLORADO/ARIZONA

CITY           SKY/WX    TMP DP  RH WIND       PRES   REMARKS
CRAIG, CO      CLOUDY    29  20  69 W5        29.53S WCI  24
GRAND JUNCTION PTCLDY    30  30 100 E5        29.57R WCI  25
RIFLE, CO      CLOUDY    29  27  92 S3        29.57S
MONTROSE, CO   CLOUDY    33  23  66 SE9       29.60F WCI  25
CORTEZ, CO     FLURRIES  27  26  96 NE5       29.64F WCI  22
COLORADO CITY  LGT SNOW  32  32 100 NW7       29.69R WCI  26
PAGE, AZ       CLOUDY    38  28  67 CALM      29.62F
GRAND CANYON   LGT SNOW  25  24  96 SW8       29.65S FOG     WCI  16
KINGMAN, AZ    PTCLDY    36  32  85 SW15      29.72S WCI  27
FLAGSTAFF, AZ  LGT SNOW  26  24  92 SW8       29.65S VSB 3/4 WCI  18

$$

REGIONAL REPORTS    NEVADA/IDAHO/WYOMING

CITY           SKY/WX    TMP DP  RH WIND       PRES   REMARKS
LAS VEGAS, NV  CLOUDY    44  31  60 S5        29.71R
ELY, NY        MOCLDY    -1  -4  87 S8        29.67R WCI -15
ELKO, NV       CLOUDY    24  18  77 S5        29.71R WCI  18
POCATELLO, ID  LGT SNOW  26  25  96 SW13      29.60R FOG     WCI  15
BURLEY, ID     CLOUDY    28  22  78 W17       29.60R WCI  16
FORT BRIDGER,  PTCLDY    21  19  93 W23       29.53S WCI   5
EVANSTON, WY   CLOUDY    17  13  84 SW18      29.52R WCI   1
ROCK SPRINGS,  CLOUDY    23  17  78 W18       29.50R WCI   9

$$



USA.gov is the U.S. government's official web portal to all federal, state and local government web resources and services.